Lexington Weather

Lexington, Massachusetts, USA

23°F
1/21/2021 9:21am 
  • Lexington Conditions: Clear
  • Temperature: 23.0°F / -5.0°CWarmer 1.4°F than last hour.
  • Dew Point: 12.2°FIncreased 0.2°Fsince last hour.
  • Relative Humidity: 63%Decreased 3.0% since last hour.
  • Wind: Wind from SW SW Calm, 10-min avg: 1 mph, gust: 5 mph
  • Barometer: 29.76 inFalling 0.04  inHg/hr Falling Slowly
  • Visibility: 10 miles
  • Snow Today: Trace
  •   

Regional Weather Roundup
for Boston / Norton, MA

        
000
ASUS41 KBOX 161904
RWRBOX

REGIONAL WEATHER ROUNDUP
NATIONAL WEATHER SERVICE BOSTON/NORTON MA
200 PM EST SAT JAN 16 2021

NOTE:  "FAIR" INDICATES FEW OR NO CLOUDS BELOW 12,000 FEET WITH NO 
SIGNIFICANT WEATHER AND/OR OBSTRUCTIONS TO VISIBILITY.

MAZALL-162000-
EASTERN MASSACHUSETTS
  
CITY           SKY/WX    TMP DP  RH WIND       PRES   REMARKS
BOSTON         CLOUDY    50  50 100 S10       29.23F                  
BEVERLY        LGT RAIN  50  47  89 S10       29.23F FOG              
LAWRENCE       NOT AVBL                                               
BEDFORD        LGT RAIN  53  51  93 SW15      29.22F FOG              
BLUE HILL        N/A     51  49  92 S15G25    29.22F                  
NORWOOD        CLOUDY    53  49  86 S10       29.23F                  
MARSHFIELD     CLOUDY    55  52  88 SW13G18   29.25S                  
PLYMOUTH       CLOUDY    53  48  83 SW14G24   29.26S                  
TAUNTON        MOSUNNY   55  46  71 SW13G23   29.26S                  
NEW BEDFORD    PTSUNNY   53  48  83 SW14G22   29.27S                  
$$

MAZALL-162000-
CAPE COD AND THE ISLANDS
  
CITY           SKY/WX    TMP DP  RH WIND       PRES   REMARKS
FALMOUTH       CLOUDY    50  48  93 SW20G31   29.30S                  
HYANNIS        CLOUDY    50  46  86 SW15      29.30R                  
CHATHAM        CLOUDY    49  46  90 SW13G21   29.33R                  
NANTUCKET      CLOUDY    49  46  90 SW17      29.33S                  
MARTHAS VNYRD  CLOUDY    48  45  89 SW15G28   29.32R                  
$$
 
MAZALL-162000-
CENTRAL AND WESTERN MASSACHUSETTS
  
CITY           SKY/WX    TMP DP  RH WIND       PRES   REMARKS
WORCESTER      CLOUDY    44  42  93 SW16      29.23F                  
FITCHBURG      CLOUDY    49  47  93 VRB6      29.23S                  
ORANGE         CLOUDY    41  39  93 W8        29.26S                  
SPRINGFIELD    PTSUNNY   42  41  96 W7        29.27F                  
WESTFIELD      CLOUDY    43  41  93 SW6       29.28F                  
NORTH ADAMS    CLOUDY    38  35  89 W8        29.28F                  
PITTSFIELD     CLOUDY    36  33  89 W6        29.26F WCI  31          
$$
 
RIZALL-162000-
RHODE ISLAND
  
CITY           SKY/WX    TMP DP  RH WIND       PRES   REMARKS
PROVIDENCE     MOSUNNY   53  46  77 W21G31    29.26S                  
NEWPORT        MOSUNNY   45  43  93 SW12G22   29.28S                  
BLOCK ISLAND   CLOUDY    43  42  97 W14G23    29.33S                  
SMITHFIELD     MOSUNNY   51  47  86 W12G22    29.25S                  
WESTERLY       CLOUDY    42  41  96 SW13G24   29.32R                  
$$
 
CTZALL-162000-
CONNECTICUT
  
CITY           SKY/WX    TMP DP  RH WIND       PRES   REMARKS
BRADLEY INTL   PTSUNNY   45  40  82 SW8       29.29S                  
HARTFORD       CLOUDY    46  41  82 SW5       29.31S                  
BRIDGEPORT     CLOUDY    45  40  82 W10G18    29.34S                  
DANBURY        CLOUDY    42  37  82 SW7       29.33F                  
GROTON         CLOUDY    43  41  93 SW16G28   29.32R                  
NEW HAVEN      CLOUDY    45  42  89 SW6       29.33S                  
CHESTER        NOT AVBL                                               
MERIDEN        CLOUDY    43  38  82 VRB5      29.32S                  
WILLIMANTIC    CLOUDY    44  40  85 W9        29.29S                  
OXFORD         CLOUDY    39  39 100 W8        29.31F                  
$$

MEZ002-015-021-024-NHZ003-005-008-011-012-014-VTZ005-008-162000-
NORTHERN NEW ENGLAND
  
CITY           SKY/WX    TMP DP  RH WIND       PRES   REMARKS
PORTLAND ME    LGT RAIN  44  44 100 E23G33    29.29F FOG              
BANGOR ME      RAIN      35  31  85 E16G25    29.57F FOG     WCI  25  
CONCORD NH     LGT RAIN  47  44  90 E6        29.22F                  
MANCHESTER NH  CLOUDY    50  46  86 SE12      29.20F FOG              
NASHUA NH      LGT RAIN  48  48 100 VRB3      29.22F FOG              
PORTSMOUTH NH  CLOUDY    48  46  93 SE20      29.21F FOG              
JAFFREY NH     LGT RAIN  43  41  93 CALM      29.22S FOG              
KEENE NH       LGT RAIN  40  39  97 CALM      29.25F                  
BURLINGTON VT  LGT SNOW  34  31  88 N6        29.31F VSB 1   WCI  29  
MT. WASHINGTON SNOW      21  21 100 E81G104     N/A  VSB 1/16WCI  -5  
$$

NYZ052-076-162000-
EASTERN NEW YORK
  
CITY           SKY/WX    TMP DP  RH WIND       PRES   REMARKS
ALBANY         CLOUDY    36  35  96 W6        29.32F WCI  31          
NEW YORK CITY  MOSUNNY   48  38  68 W12       29.35S                  
$$
 
ANZALL-162000-
MARINE OBSERVATIONS
  
STATION/POSITION TIME  TEMP    WIND        PRES    VSBY  WAVE
                       AIR SEA DIR/SP/G                  HT/PER
                 (UTC) (F)     (DEG/KT/KT) (MB)    (MI)  (FT/S)
BOSTON BUOY      1840   47 43  150/ 16/ 19  990.4F
BUZZARDS BAY     1800          220/ 25/ 29  992.6S
NANTUCKET SOUND  1840      41  210/ 16/ 19   N/A
MASS BAY-STELLWA 1804   47     120/ 17/ 23  988.7F  1 7/8 10/ 8
ISLE OF SHOALS   1800   47     100/ 31/ 36  988.3F
S OF BLOCK IS    1826      48                N/A          10/ 9
$$

......................KEY.........................
  SKY/WX - SKY CONDITION/PRESENT WEATHER
  TMP    - TEMPERATURE IN FAHRENHEIT
  DWPT   - DEWPOINT IN FAHRENHEIT
  RH     - RELATIVE HUMIDITY IN PERCENT
  WIND   - DIRECTION AND SPEED IN MPH
  PRES   - MEAN SEA LEVEL PRESSURE IN INCHES OF HG
  WCI    - WIND CHILL INDEX
  VSB    - VISIBILITY IN MILES
  HX     - HEAT INDEX
  TC     - TEMPERATURE IN CELSIUS
  VRB    - VARIABLE WIND DIRECTION
  N/A    - NOT AVAILABLE
  
      

Other recent Regional Weather Roundups

Thu Jan 21, 9:04am

Thu Jan 21, 7:04am

Thu Jan 21, 6:04am

Thu Jan 21, 5:04am

Thu Jan 21, 4:04am

Thu Jan 21, 3:04am

Thu Jan 21, 2:04am

Thu Jan 21, 1:04am

Thu Jan 21, 12:04am

Wed Jan 20, 11:04pm

Wed Jan 20, 10:05pm

Wed Jan 20, 9:04pm

Wed Jan 20, 8:04pm

Wed Jan 20, 7:04pm

Wed Jan 20, 6:05pm

Wed Jan 20, 5:05pm

Wed Jan 20, 1:04pm

Wed Jan 20, 12:04pm

Wed Jan 20, 11:04am

Wed Jan 20, 10:04am

Wed Jan 20, 9:05am

Wed Jan 20, 8:04am

Wed Jan 20, 7:04am

Wed Jan 20, 6:04am

Wed Jan 20, 5:04am

Wed Jan 20, 4:04am

Wed Jan 20, 3:05am

Wed Jan 20, 2:04am

Wed Jan 20, 1:04am

Wed Jan 20, 12:04am

Tue Jan 19, 11:04pm

Tue Jan 19, 10:04pm

Tue Jan 19, 9:04pm

Tue Jan 19, 8:04pm

Tue Jan 19, 7:04pm

Tue Jan 19, 6:05pm

Tue Jan 19, 5:04pm

Tue Jan 19, 4:05pm

Tue Jan 19, 3:04pm

Tue Jan 19, 2:04pm

Tue Jan 19, 1:04pm

Tue Jan 19, 12:05pm

Tue Jan 19, 11:04am

Tue Jan 19, 10:05am

Tue Jan 19, 9:04am

Tue Jan 19, 8:04am

Tue Jan 19, 7:04am

Tue Jan 19, 6:04am

Tue Jan 19, 5:04am

Tue Jan 19, 4:04am

Tue Jan 19, 3:04am

Tue Jan 19, 2:04am

Tue Jan 19, 1:04am

Tue Jan 19, 12:04am

Mon Jan 18, 11:04pm

Mon Jan 18, 10:04pm

Mon Jan 18, 9:04pm

Mon Jan 18, 8:05pm

Mon Jan 18, 7:04pm

Mon Jan 18, 6:05pm

Mon Jan 18, 5:04pm

Mon Jan 18, 4:04pm

Mon Jan 18, 3:04pm

Mon Jan 18, 2:04pm

Mon Jan 18, 1:04pm

Mon Jan 18, 12:04pm

Mon Jan 18, 11:04am

Mon Jan 18, 10:04am

Mon Jan 18, 9:04am

Mon Jan 18, 8:04am

Mon Jan 18, 7:04am

Mon Jan 18, 6:04am

Mon Jan 18, 5:04am

Mon Jan 18, 4:04am

Mon Jan 18, 3:04am

Mon Jan 18, 2:04am

Mon Jan 18, 1:04am

Mon Jan 18, 12:04am

Sun Jan 17, 11:04pm

Sun Jan 17, 10:04pm

Sun Jan 17, 9:04pm

Sun Jan 17, 8:04pm

Sun Jan 17, 7:04pm

Sun Jan 17, 6:04pm

Sun Jan 17, 5:04pm

Sun Jan 17, 4:05pm

Sun Jan 17, 3:04pm

Sun Jan 17, 2:04pm

Sun Jan 17, 1:04pm

Sun Jan 17, 12:04pm

Sun Jan 17, 11:04am

Sun Jan 17, 10:04am

Sun Jan 17, 9:04am

Sun Jan 17, 8:04am

Sun Jan 17, 7:04am

Sun Jan 17, 6:04am

Sun Jan 17, 5:04am

Sun Jan 17, 4:04am

Sun Jan 17, 3:04am

Sun Jan 17, 2:04am

Sun Jan 17, 1:04am

Sun Jan 17, 12:04am

Sat Jan 16, 11:05pm

Sat Jan 16, 10:04pm

Sat Jan 16, 9:04pm

Sat Jan 16, 8:05pm

Sat Jan 16, 7:04pm

Sat Jan 16, 6:04pm

Sat Jan 16, 5:05pm

Sat Jan 16, 4:05pm

Sat Jan 16, 3:05pm

Sat Jan 16, 1:04pm

Sat Jan 16, 12:04pm

Sat Jan 16, 11:04am

Sat Jan 16, 10:05am

Sat Jan 16, 9:04am

Sat Jan 16, 8:04am

Sat Jan 16, 7:04am

Sat Jan 16, 6:04am

Sat Jan 16, 5:04am

Sat Jan 16, 4:04am

Sat Jan 16, 3:05am

Sat Jan 16, 2:04am

Sat Jan 16, 1:04am

Sat Jan 16, 12:05am

Fri Jan 15, 11:05pm

Fri Jan 15, 10:04pm

Fri Jan 15, 9:04pm

Fri Jan 15, 8:04pm

Fri Jan 15, 7:05pm

Fri Jan 15, 6:05pm

Fri Jan 15, 5:05pm

Fri Jan 15, 4:05pm

Fri Jan 15, 3:04pm

Fri Jan 15, 2:05pm

Fri Jan 15, 1:04pm

Fri Jan 15, 12:05pm

Fri Jan 15, 11:04am

Fri Jan 15, 10:04am

Fri Jan 15, 9:05am

Fri Jan 15, 8:04am

Fri Jan 15, 7:04am

Fri Jan 15, 6:04am

Fri Jan 15, 5:05am

Fri Jan 15, 4:04am

Fri Jan 15, 3:04am

Fri Jan 15, 2:04am

Fri Jan 15, 1:04am

Fri Jan 15, 12:05am

Thu Jan 14, 11:04pm

Thu Jan 14, 10:04pm

Thu Jan 14, 9:04pm

Thu Jan 14, 8:05pm

Thu Jan 14, 7:04pm

Thu Jan 14, 6:04pm

Thu Jan 14, 5:04pm

Thu Jan 14, 4:05pm

Thu Jan 14, 3:04pm

Thu Jan 14, 2:04pm

Thu Jan 14, 1:04pm

Thu Jan 14, 12:05pm

Thu Jan 14, 11:05am

Thu Jan 14, 10:04am

Thu Jan 14, 9:04am

Thu Jan 14, 8:04am

Thu Jan 14, 7:04am

Thu Jan 14, 6:04am

Thu Jan 14, 5:04am

Thu Jan 14, 4:04am

Thu Jan 14, 3:04am

Thu Jan 14, 2:04am

Thu Jan 14, 1:04am

Thu Jan 14, 12:04am

Wed Jan 13, 11:04pm

Wed Jan 13, 10:04pm

Wed Jan 13, 9:04pm

Wed Jan 13, 8:05pm

Wed Jan 13, 7:04pm

Wed Jan 13, 6:04pm

Wed Jan 13, 5:04pm

Wed Jan 13, 4:04pm

Wed Jan 13, 3:05pm

Wed Jan 13, 2:04pm

Wed Jan 13, 1:04pm

Wed Jan 13, 12:04pm

Wed Jan 13, 11:04am

Wed Jan 13, 10:04am

Wed Jan 13, 9:05am

Wed Jan 13, 8:04am

Wed Jan 13, 7:04am

Wed Jan 13, 6:04am

Wed Jan 13, 5:04am

Wed Jan 13, 4:04am

Wed Jan 13, 3:04am

Wed Jan 13, 2:04am

Wed Jan 13, 1:04am

Wed Jan 13, 12:05am

Tue Jan 12, 11:04pm

Tue Jan 12, 10:04pm

Tue Jan 12, 9:04pm

Tue Jan 12, 8:05pm

Tue Jan 12, 7:04pm

Meta data:

ID: c1515c51-c8e2-439c-af39-6e9ba15aab09
Link: https://api.weather.gov/products/c1515c51-c8e2-439c-af39-6e9ba15aab09